Lewiston, WA

10:49 AM PDT on April 27, 2017 (GMT -0700)
Lewiston-Nez Perce County

Weather History for KLWS - January, 2013

Change the Weather History Date:

Thursday, January 10, 2013

  Actual Average Record
Temperature  
Mean Temperature 36 °F 35 °F  
Max Temperature 40 °F 41 °F 60 °F (1983)
Min Temperature 31 °F 29 °F -5 °F (1949)
Degree Days  
Heating Degree Days 29 30  
Month to date heating degree days 300 307  
Since 1 July heating degree days 2102 2515  
Cooling Degree Days 0 0  
Month to date cooling degree days 0 0  
Year to date cooling degree days 0 0  
Moisture  
Dew Point 25 °F    
Average Humidity 68    
Maximum Humidity 89    
Minimum Humidity 47    
Precipitation  
Precipitation T in 0.04 in 0.49 in (1988)
Month to date precipitation 0.08 0.36  
Year to date precipitation 0.08 0.36  
Snow  
Snow T in 0.00 in 4.30 in (1965)
Month to date snowfall 0.1 0.9  
Since 1 July snowfall 0.4 6.2  
Snow Depth 0.00 in    
Sea Level Pressure  
Sea Level Pressure 29.87 in    
Wind  
Wind Speed 7 mph (WNW)    
Max Wind Speed 20 mph    
Max Gust Speed 25 mph    
Visibility 10 miles    
Events      
T = Trace of Precipitation, MM = Missing Value Source: NWS Daily Summary

Daily Weather History Graph

Daily Weather History Graph

Search for Another Location

Airport or City:

Trip Planner

Search our weather history database for the weather conditions in past years. The results will help you decide how hot, cold, wet, or windy it might be!

Date:

Astronomy

Jan. 10, 2013 Rise Set
Actual Time 7:29 AM PST 4:22 PM PST
Civil Twilight 6:55 AM PST 4:56 PM PST
Nautical Twilight 6:17 AM PST 5:34 PM PST
Astronomical Twilight 5:41 AM PST 6:10 PM PST
Moon 6:13 AM PST (1/10) 3:36 PM PST (1/10)
Length of Visible Light 10h 00m
Length of Day
8h 52m
Waning Crescent, 1% of the Moon is Illuminated
Jan 10
Waning Crescent
Jan 11
New
Jan 18
First Quarter
Jan 26
Full
Feb 3
Last Quarter

Hourly Weather History & Observations

Time (PST) Temp. Windchill Dew Point Humidity Pressure Visibility Wind Dir Wind Speed Gust Speed Precip Events Conditions
12:56 AM 37.9 °F 34.4 °F 32.0 °F 79% 29.83 in 10.0 mi SE 4.6 mph - N/A   Overcast
1:56 AM 37.9 °F 35.5 °F 33.1 °F 83% 29.84 in 10.0 mi East 3.5 mph - N/A   Overcast
2:56 AM 37.0 °F 32.4 °F 33.1 °F 86% 29.84 in 10.0 mi East 5.8 mph - N/A   Overcast
3:56 AM 36.0 °F 31.1 °F 32.0 °F 86% 29.83 in 10.0 mi SE 5.8 mph - N/A   Overcast
4:56 AM 36.0 °F 33.3 °F 30.0 °F 79% 29.84 in 10.0 mi SSE 3.5 mph - N/A   Overcast
5:56 AM 36.0 °F - 28.0 °F 73% 29.84 in 10.0 mi Calm Calm - N/A   Overcast
6:56 AM 36.0 °F - 27.0 °F 70% 29.86 in 10.0 mi Calm Calm - N/A   Overcast
7:56 AM 36.0 °F 29.0 °F 24.1 °F 62% 29.88 in 10.0 mi NW 9.2 mph - N/A   Overcast
8:56 AM 36.0 °F - 24.1 °F 62% 29.89 in 10.0 mi Calm Calm - N/A   Overcast
9:56 AM 37.0 °F - 25.0 °F 62% 29.86 in 10.0 mi Calm Calm - N/A   Overcast
10:43 AM 35.6 °F - 26.6 °F 70% 29.85 in 10.0 mi Calm Calm - N/A   Overcast
10:56 AM 37.0 °F - 28.0 °F 70% 29.88 in 10.0 mi Calm Calm - N/A   Overcast
11:56 AM 36.0 °F 28.0 °F 27.0 °F 70% 29.87 in 10.0 mi NW 11.5 mph - N/A   Overcast
12:36 PM 35.6 °F 26.2 °F 26.6 °F 70% 29.84 in 10.0 mi WNW 15.0 mph 20.7 mph N/A   Overcast
12:56 PM 35.1 °F 25.5 °F 27.0 °F 72% 29.88 in 10.0 mi West 15.0 mph 23.0 mph N/A   Overcast
1:30 PM 35.6 °F 27.1 °F 26.6 °F 70% 29.85 in 9.0 mi West 12.7 mph 17.3 mph 0.00 in   Overcast
1:56 PM 35.1 °F 30.1 °F 27.0 °F 72% 29.89 in 10.0 mi West 5.8 mph - 0.00 in   Overcast
2:56 PM 35.1 °F 26.4 °F 24.1 °F 64% 29.89 in 10.0 mi West 12.7 mph 25.3 mph N/A   Overcast
3:56 PM 35.1 °F 26.9 °F 24.1 °F 64% 29.89 in 10.0 mi WNW 11.5 mph - 0.00 in   Overcast
4:27 PM 33.8 °F 27.0 °F 24.8 °F 70% 29.86 in 10.0 mi West 8.1 mph - N/A   Overcast
4:56 PM 35.1 °F 31.0 °F 21.9 °F 59% 29.90 in 10.0 mi Variable 4.6 mph - N/A   Overcast
5:56 PM 35.1 °F 24.8 °F 19.9 °F 54% 29.88 in 10.0 mi West 17.3 mph 23.0 mph N/A   Overcast
6:56 PM 35.1 °F 27.9 °F 18.0 °F 50% 29.89 in 10.0 mi WNW 9.2 mph 18.4 mph N/A   Overcast
7:56 PM 34.0 °F 26.6 °F 17.1 °F 50% 29.90 in 10.0 mi WNW 9.2 mph - N/A   Overcast
8:56 PM 33.8 °F 25.3 °F 17.6 °F 52% 29.88 in 10.0 mi West 11.5 mph 17.3 mph N/A   Overcast
9:56 PM 33.1 °F 24.4 °F 17.1 °F 52% 29.91 in 10.0 mi West 11.5 mph - N/A   Overcast
10:56 PM 32.0 °F 24.8 °F 16.0 °F 52% 29.91 in 10.0 mi WNW 8.1 mph - N/A   Overcast
11:56 PM 30.9 °F 21.2 °F 15.1 °F 52% 29.93 in 10.0 mi WNW 12.7 mph - N/A   Overcast